Weather History for Springfield, MO

Change the Weather History Date:

Sunday, November 6, 2011

  Actual Average Record
Temperature  
Mean Temperature 57 °F 50 °F  
Max Temperature 62 °F 61 °F 80 °F (1999)
Min Temperature 51 °F 40 °F 15 °F (1951)
Degree Days  
Heating Degree Days 8 15  
Month to date heating degree days 78 82  
Since 1 July heating degree days 422 390  
Cooling Degree Days 0 0  
Month to date cooling degree days 0 0  
Year to date cooling degree days 1818 1387  
Growing Degree Days 6 (Base 50)    
Moisture  
Dew Point 50 °F    
Average Humidity 78    
Maximum Humidity 84    
Minimum Humidity 71    
Precipitation  
Precipitation 0.01 in 0.14 in 2.92 in (1996)
Month to date precipitation 0.52 0.82  
Year to date precipitation 33.01 39.13  
Snow  
Snow 0.00 in - - ()
Month to date snowfall T  
Since 1 July snowfall T  
Since 1 September snowfall T  
Snow Depth 0.00 in    
Sea Level Pressure  
Sea Level Pressure 29.99 in    
Wind  
Wind Speed 15 mph (SSE)    
Max Wind Speed 24 mph    
Max Gust Speed 31 mph    
Visibility 10 miles    
Events Rain    
T = Trace of Precipitation, MM = Missing Value Source: NWS Daily Summary

Daily Weather History Graph

Daily Weather History Graph

Search for Another Location

Airport:

Trip Planner

Search our weather history database for the weather conditions in past years. The results will help you decide how hot, cold, wet, or windy it might be!

Date:

Astronomy

Nov. 06, 2011 Rise Set
Actual Time 6:42 AM CST 5:10 PM CST
Civil Twilight 6:15 AM CST 5:38 PM CST
Nautical Twilight 5:44 AM CST 6:09 PM CST
Astronomical Twilight 5:14 AM CST 6:39 PM CST
Moon 2:51 PM CST (11/6) 2:54 AM CST (11/6)
Length of Visible Light 11h 22m
Length of Day
10h 28m
Waxing Gibbous, 86% of the Moon is Illuminated
Nov 6
Waxing Gibbous
Nov 10
Full
Nov 18
Last Quarter
Nov 25
New
Dec 2
First Quarter

Hourly Weather History & Observations

Time (CST) Temp. Dew Point Humidity Pressure Visibility Wind Dir Wind Speed Gust Speed Precip Events Conditions
12:52 AM 51.1 °F 44.1 °F 77% 29.92 in 10.0 mi SSE 19.6 mph 28.8 mph N/A   Clear
1:52 AM 51.1 °F 45.0 °F 80% 29.91 in 10.0 mi SSE 20.7 mph 26.5 mph N/A   Clear
1:52 AM 52.0 °F 45.0 °F 77% 29.93 in 10.0 mi SSE 15.0 mph - N/A   Clear
2:52 AM 52.0 °F 45.0 °F 77% 29.93 in 10.0 mi SSE 17.3 mph 25.3 mph N/A   Mostly Cloudy
3:52 AM 52.0 °F 45.0 °F 77% 29.93 in 10.0 mi SSE 17.3 mph 27.6 mph N/A   Clear
4:52 AM 53.1 °F 45.0 °F 74% 29.94 in 10.0 mi SSE 18.4 mph 24.2 mph N/A   Mostly Cloudy
5:52 AM 54.0 °F 46.0 °F 75% 29.94 in 10.0 mi SSE 19.6 mph 27.6 mph N/A   Clear
6:52 AM 55.0 °F 46.9 °F 74% 29.97 in 10.0 mi South 16.1 mph - N/A   Mostly Cloudy
7:52 AM 57.0 °F 48.9 °F 74% 29.99 in 10.0 mi SSE 15.0 mph - N/A   Overcast
8:05 AM 57.2 °F 48.2 °F 72% 30.00 in 10.0 mi SSE 17.3 mph 24.2 mph N/A   Overcast
8:52 AM 57.9 °F 50.0 °F 75% 30.01 in 10.0 mi South 16.1 mph 21.9 mph N/A   Overcast
9:52 AM 59.0 °F 51.1 °F 75% 30.01 in 10.0 mi SSE 13.8 mph - N/A   Overcast
10:52 AM 60.1 °F 52.0 °F 75% 30.02 in 10.0 mi SSE 15.0 mph - N/A   Overcast
11:52 AM 61.0 °F 53.1 °F 75% 30.01 in 10.0 mi SSE 16.1 mph 19.6 mph N/A   Overcast
12:52 PM 62.1 °F 54.0 °F 75% 29.99 in 10.0 mi South 12.7 mph - N/A   Overcast
1:52 PM 62.1 °F 54.0 °F 75% 29.99 in 10.0 mi South 10.4 mph - N/A   Overcast
2:52 PM 61.0 °F 54.0 °F 78% 29.99 in 10.0 mi SSE 10.4 mph - N/A   Overcast
3:52 PM 61.0 °F 55.0 °F 81% 30.00 in 10.0 mi SSE 11.5 mph 18.4 mph N/A   Overcast
4:52 PM 61.0 °F 54.0 °F 78% 30.01 in 10.0 mi SSE 12.7 mph - N/A   Overcast
5:52 PM 62.1 °F 54.0 °F 75% 30.01 in 10.0 mi SSE 13.8 mph - N/A   Overcast
6:52 PM 60.1 °F 54.0 °F 80% 30.03 in 10.0 mi SSE 15.0 mph - 0.01 in Rain Light Rain
7:52 PM 59.0 °F 54.0 °F 83% 30.03 in 10.0 mi SSE 17.3 mph - 0.00 in Rain Light Rain
8:52 PM 60.1 °F 53.1 °F 78% 30.05 in 10.0 mi South 11.5 mph - 0.00 in   Overcast
9:09 PM 59.0 °F 53.6 °F 82% 30.07 in 10.0 mi SSE 12.7 mph - N/A   Overcast
9:52 PM 57.9 °F 52.0 °F 81% 30.07 in 10.0 mi SSE 12.7 mph - N/A   Mostly Cloudy
10:52 PM 57.0 °F 52.0 °F 83% 30.05 in 10.0 mi SSE 15.0 mph - N/A   Partly Cloudy